This demonstration page uses our WeatherBlox Daily Observations layout. Learn more.

Left ArrowRight Arrow

31.31129, -92.44514

Hourly Observations for December 8, 2019

Temp ( °F °C ) Dew Point ( °F °C ) Humidity (%) Winds ( mph kmh ) Pressure ( in mb ) Visibility ( mi km ) Precip ( " mm )
12:53 am 00:53 Cloudy 49 9.4 46 7.8 90 90 Calm 30.19 1022 8 13 0.00 0.00
1:53 am 01:53 Cloudy 49 9.4 46 7.8 90 90 NNE 3 6 30.17 1022 8 13 0.00 0.00
2:25 am 02:25 Partly Cloudy 48 8.9 45 7.2 89 89 N 3 6 30.16 1021 7 11 0.00 0.00
2:53 am 02:53 Clear with Mist and Fog 46 7.8 44 6.7 93 93 NNE 3 6 30.17 1022 6 10 0.00 0.00
3:05 am 03:05 Partly Cloudy with Mist and Fog 47 8.3 45 7.2 93 93 Calm 30.16 1021 6 10 0.00 0.00
3:14 am 03:14 Mostly Cloudy with Mist and Fog 48 8.9 46 7.8 93 93 NNE 6 9 30.15 1021 6 10 0.00 0.00
3:25 am 03:25 Cloudy with Mist and Fog 48 8.9 46 7.8 93 93 NNE 3 6 30.15 1021 6 10 0.00 0.00
3:53 am 03:53 Cloudy with Mist and Fog 48 8.9 46 7.8 93 93 VRB 3 6 30.17 1022 5 8 0.00 0.00
4:19 am 04:19 Cloudy with Mist and Fog 47 8.3 46 7.8 97 97 NNE 3 6 30.13 1020 2 3 0.00 0.00
4:49 am 04:49 Mostly Cloudy with Fog 46 8 46 8 100 100 ENE 6 9 30.12 1020 1 1 0.00 0.00
4:53 am 04:53 Mostly Cloudy with Fog 47 8.3 46 7.8 97 97 E 7 11 30.14 1021 1 1 0.00 0.00
5:53 am 05:53 Mostly Cloudy with Mist and Fog 47 8.3 46 7.8 97 97 ENE 5 7 30.15 1021 1 2 0.00 0.00
6:46 am 06:46 Mostly Cloudy with Mist and Fog 46 7.8 46 7.8 100 100 E 6 9 30.15 1021 1 1 0.00 0.00
6:53 am 06:53 Mostly Cloudy with Mist and Fog 46 7.8 46 7.8 100 100 ENE 5 7 30.16 1021 1 1 0.00 0.00
7:10 am 07:10 Mostly Cloudy with Mist and Fog 46 7.8 46 7.8 100 100 ESE 8 13 30.14 1021 1 2 0.00 0.00
7:17 am 07:17 Mostly Cloudy with Fog 46 7.8 46 7.8 100 100 E 8 13 30.15 1021 1 1 0.00 0.00
7:24 am 07:24 Mostly Cloudy with Fog 46 7.8 46 7.8 100 100 E 8 13 30.14 1021 0 0 0.00 0.00
7:53 am 07:53 Mostly Cloudy with Fog 46 7.8 46 7.8 100 100 E 6 9 30.15 1021 0 0 0.00 0.00
8:42 am 08:42 Mostly Cloudy with Mist and Fog 46 7.8 46 7.8 100 100 SE 6 9 30.15 1021 1 1 0.00 0.00
8:53 am 08:53 Cloudy with Mist and Fog 46 7.8 46 7.8 100 100 SE 6 9 30.16 1022 1 1 0.00 0.00
9:03 am 09:03 Cloudy with Mist and Fog 47 8.3 46 7.8 97 97 ESE 6 9 30.15 1021 1 2 0.00 0.00
9:53 am 09:53 Cloudy with Mist and Fog 47 8.3 47 8.3 100 100 S 5 7 30.18 1022 3 4 0.00 0.00
10:00 am 10:00 Cloudy with Mist and Fog 48 8.9 47 8.3 96 96 S 5 7 30.17 1022 3 5 0.00 0.00
10:53 am 10:53 Cloudy with Mist and Fog 50 10 48 8.9 93 93 SSE 8 13 30.16 1021 6 10 0.00 0.00
11:09 am 11:09 Cloudy with Mist and Fog 51 10.6 48 8.9 89 89 SSE 7 11 30.13 1020 6 10 0.00 0.00
11:53 am 11:53 Cloudy 53 11.7 48 8.9 83 83 SSE 9 15 30.11 1020 7 11 0.00 0.00
12:25 pm 12:25 Cloudy 54 12.2 49 9.4 83 83 SSE 6 9 30.08 1019 7 11 0.00 0.00
12:53 pm 12:53 Cloudy 56 13.3 49 9.4 77 77 VRB 5 7 30.08 1019 7 11 0.00 0.00
1:00 pm 13:00 Mostly Cloudy 56 13.3 49 9.4 77 77 SE 5 7 30.06 1018 8 13 0.00 0.00
1:16 pm 13:16 Partly Cloudy 57 13.9 50 10 78 78 Calm 30.05 1018 8 13 0.00 0.00
1:53 pm 13:53 Mostly Sunny 60 15.6 51 10.6 72 72 VRB 3 6 30.04 1017 9 14 0.00 0.00
2:53 pm 14:53 Sunny 62 16.7 51 10.6 67 67 S 7 11 30.00 1016 10 16 0.00 0.00
3:53 pm 15:53 Sunny 62 16.7 51 10.6 67 67 S 8 13 29.99 1016 10 16 0.00 0.00
4:53 pm 16:53 Sunny 59 15 51 10.6 75 75 SSE 5 7 29.99 1016 10 16 0.00 0.00
5:53 pm 17:53 Clear 56 13.3 50 10 81 81 ESE 7 11 29.98 1015 10 16 0.00 0.00
6:53 pm 18:53 Clear 56 13.3 52 11.1 87 87 SSE 7 11 29.98 1015 9 14 0.00 0.00
7:53 pm 19:53 Clear 57 13.9 52 11.1 83 83 SE 8 13 29.96 1015 10 16 0.00 0.00
8:53 pm 20:53 Clear 57 13.9 53 11.7 87 87 SE 7 11 29.96 1015 10 16 0.00 0.00
9:53 pm 21:53 Clear 58 14.4 54 12.2 87 87 SSE 10 17 29.94 1014 10 16 0.00 0.00
10:53 pm 22:53 Mostly Cloudy 58 14.4 55 12.8 90 90 SSE 9 15 29.93 1014 8 13 0.00 0.00
11:27 pm 23:27 Mostly Cloudy 57 13.9 56 13.3 96 96 SSE 8 13 29.92 1013 7 11 0.00 0.00
11:38 pm 23:38 Cloudy 58 14.4 56 13.3 93 93 SSE 9 15 29.91 1013 7 11 0.00 0.00
11:53 pm 23:53 Cloudy 59 15 57 13.9 93 93 SSE 8 13 29.92 1013 7 11 0.00 0.00

Powered by AerisWeather